sat.trackr.live / text

‹ back to catalog

STARLINK-11479 [DTC]

NORAD 62270 · 2024-237D

PAYLOAD ACTIVE UNKNOWN

§ Identity

Operator
Country
US
Launch date
2024-12-08
Launch site
AFETR
Launch vehicle
Mass (kg)
RCS (m²)

Purposes: comms

External: N2YO · Heavens-Above · Gunter

§ Orbital elements

Epoch: 2026-05-25T04:36:17.256096Z

Period
91.67 min
Inclination
42.9997°
Eccentricity
0.0000891
Mean motion
15.70895118 rev/d
Perigee alt
355.7 km
Apogee alt
356.9 km
Semi-major
6,734.5 km
B*
1.4850e-3
RAAN
315.5195°
Arg perigee
299.6738°
Mean anomaly
60.4041°
Rev number
8,508

§ Raw data

STARLINK-11479 [DTC]1 62270U 24237D   26145.19186639  .00195092  00000+0  14850-2 0  99912 62270  42.9997 315.5195 0000891 299.6738  60.4041 15.70895118 85081

JSON: /api/v1/satellites/62270 · /tle

For live sub-satellite position, see the globe view (requires WebGL).

§ Visibility from observer

Set your observer location to see the next 7 days of passes ≥ 10°. The values pass through the URL so the page stays shareable.

No JS? Fill the form by hand. The geolocation button needs JavaScript.